Location: Aigremont
(47.7188°N, 3.8925°E)
Time: 06:02:15
(UTC+00:00)

CZ-4B R/B - Pass Details

Date: 18 February 2020
Orbit: 497 x 647 km, 97.8° (Epoch: 09 April)

Event Time Altitude Azimuth Distance (km) Brightness Sun altitude
Rises 04:15:35 0° 16° (NNE) 2,861 7.8 -25.9°
Reaches altitude 10° 04:17:46 10° 20° (NNE) 1,975 7.0 -25.6°
Maximum altitude 04:22:02 62° 101° (E) 706 4.5 -24.9°
Enters shadow 04:24:00 31° 171° (S) 1,107 5.3 -24.5°
